Regional Weather Roundup
Issued by NWS Upton, NY

Current Version | Previous Version | Graphics & Text | Print | Product List | Glossary Off
Versions: 1 2 3 4 5 6 7 8 9 10 11 12 13 14 15 16 17 18 19 20 21 22 23 24 25 26 27

000
ASUS41 KOKX 202209
RWROKX

REGIONAL WEATHER ROUNDUP
NATIONAL WEATHER SERVICE NEW YORK NY
600 PM EDT SUN AUG 20 2017

NOTE: "FAIR" INDICATES FEW OR NO CLOUDS BELOW 12,000 FEET WITH NO
SIGNIFICANT WEATHER AND/OR OBSTRUCTIONS TO VISIBILITY.

NYZ071-072-176-178-NJZ106-104-202300-
NEW YORK CITY METRO AREA

CITY           SKY/WX    TMP DP  RH WIND       PRES   REMARKS
Central Park   SUNNY     81  58  45 VRB3      30.10R
Bronx Bot Gard   N/A     82  55  39 W16       30.08F
LaGuardia APRT MOSUNNY   83  60  45 NW13      30.06R
Kennedy INTL   MOSUNNY   83  58  42 NW9G16    30.07R
Breezy Point     N/A     81 N/A N/A NW6         N/A
Newark/Liberty PTSUNNY   83  56  39 NW14      30.07R
Teterboro      MOSUNNY   82  58  43 NW10      30.06R
$$

NYZ177-179-078>081-202300-
LONG ISLAND NEW YORK

CITY           SKY/WX    TMP DP  RH WIND       PRES   REMARKS
Jones Beach      N/A     81 N/A N/A N9          N/A
Matinecock PT    N/A     81 N/A N/A W5          N/A
Farmingdale    SUNNY     81  56  42 NW8G16    30.07R
MacArthur/ISP  MOSUNNY   82  59  45 NW9       30.06R
Shirley        SUNNY     82  60  47 NW8       30.06S
Mt Sinai Harb    N/A     81 N/A N/A W2          N/A
Westhampton    SUNNY     81  56  42 W12       30.06S
East Hampton   FAIR      78  61  55 W7        30.04S
Montauk          N/A     79  65  62 W7        30.04S
$$

NYZ052-065-067-202300-
HUDSON VALLEY

CITY           SKY/WX    TMP DP  RH WIND       PRES   REMARKS
White Plains   MOSUNNY   80  57  45 NW7       30.07S
Larchmont Harb   N/A     79 N/A N/A W6          N/A
Croton On Huds   N/A     81 N/A N/A W7          N/A
Newburgh       MOSUNNY   81  61  50 VRB5      30.09R
Montgomery     SUNNY     81  59  47 W5        30.07R
Poughkeepsie   SUNNY     82  58  43 CALM      30.05R
Albany         MOSUNNY   79  58  48 W10       30.05S
$$

NJZ001-105-106-008-010-013-015-019>022-104-202300-
NEW JERSEY

CITY           SKY/WX    TMP DP  RH WIND       PRES   REMARKS
Newark/Liberty PTSUNNY   83  56  39 NW14      30.07R
Teterboro      MOSUNNY   82  58  43 NW10      30.06R
Caldwell       SUNNY     82  60  47 NW7       30.09R
Somerville     SUNNY     84  61  45 N5        30.07R
Linden         FAIR      82  57  43 NW8       30.08R
Perth Amboy      N/A     81 N/A N/A NW8G14      N/A
Sussex         SUNNY     80  60  50 CALM      30.10R
Andover          N/A     80  60  50 CALM      30.11R
Trenton        SUNNY     82  59  45 NW6       30.09R
Millville      SUNNY     85  66  53 W7        30.10R
Atlantic City  SUNNY     84  63  49 NW7       30.08S
Wrightstown    SUNNY     82  61  49 N9        30.06S
Toms River     SUNNY     81  61  50 NW9       30.09R
Belmar         SUNNY     82  61  48 W7        30.10R
$$

PAZ047>061-062-071-202300-
EASTERN PENNSYLVANIA

CITY           SKY/WX    TMP DP  RH WIND       PRES   REMARKS
Philadelphia   MOSUNNY   85  58  39 NW10      30.09S
Allentown      MOSUNNY   82  61  48 W8        30.10S
Scranton       SUNNY     81  59  47 N5        30.11F
$$

CTZ002-004>006-009-010-012-RIZ004-006-007-MAZ004-011-015-202300-
SOUTHERN NEW ENGLAND
 IN CT

CITY           SKY/WX    TMP DP  RH WIND       PRES   REMARKS
Bradley INTL   MOSUNNY   81  57  43 NW8       30.04R
Hartford       MOSUNNY   82  57  42 NW10      30.04R
Danbury        MOSUNNY   80  58  46 VRB7      30.08S
Wtrbury/Oxford SUNNY     77  58  51 NW6       30.09R
Norwalk Harbor   N/A     81 N/A N/A W10         N/A
Bridgeport     SUNNY     83  57  41 W12       30.05R
Meriden        SUNNY     81  56  42 NW8       30.05R
New Haven      MOSUNNY   82  56  40 NW10      30.05R
Chester        FAIR      79  55  44 NW10G16   30.06R
Groton         SUNNY     82  58  43 NW12      30.02R
Wilimantic     MOSUNNY   81  60  48 NW8       30.04R

 IN RI

CITY           SKY/WX    TMP DP  RH WIND       PRES   REMARKS
Providence     MOSUNNY   83  57  41 NW12      30.01R
Block Island   SUNNY     76  65  68 W14G20    30.03S
Westerly       SUNNY     83  58  42 NW6       30.03R
 IN MA

CITY           SKY/WX    TMP DP  RH WIND       PRES   REMARKS
Boston         MOSUNNY   82  53  36 W15G21    30.00R
Worcester      SUNNY     77  51  40 NW9       30.06R
Westfield      MOSUNNY   81  57  43 NW12      30.04R
Provincetown   SUNNY     76  63  64 N6        30.00R
Nantucket      SUNNY     75  66  73 W15       30.00R
$$

ANZ330-335-338-340-345-350-353-355-202300-
COASTAL MARINE OBSERVATIONS


STATION/POSITION TIME  SKY/WX   TEMP    WIND        PRES    VSBY  WAVE
                                AIR SEA DIR/SP/G                  HT/PER
                 (UTC)          (F)     (DEG/KT/KT) (MB)    (MI)  (FT/S)
NY HARB ENTRANCE 2150            78 76  280/  8/ 10 1017.6          2/ 9
GREAT SOUTH BAY  2130            80 80  320/ 10/ 12   N/A
23 SSW MONTAUK P 2150            74 73              1017.5          3/ 6
15 E BARNEGAT LI 2130               78                N/A           2/ 9
HUDSON CANYON    2150            75 74  280/ 10/ 10 1017.7          3/ 5
KINGS POINT      2148            80 76  340/  7/  8 1018.1
EXECUTION ROCKS  NOT AVBL
WESTERN LI SOUND NOT AVBL
CENTRAL LI SOUND NOT AVBL
EASTERN LI SOUND NOT AVBL
ROBBINS REEF     2136                   300/ 10/ 17 1018.7
$$


>>>>>>>>>>>>>>>>>>>>>>>>>>>> KEY <<<<<<<<<<<<<<<<<<<<<<<<<<<
>                                                          <
>     SKY/WX - Sky Condition/Present Weather               <
>     TMP    - Temperature in Fahrenheit                   <
>     DP     - Dew Point in Fahrenheit                     <
>     RH     - Relative Humidity in Percent                <
>     WIND   - Direction (from) and Speed in MPH           <
>     PRES   - Mean Sea Level Pressure (inches of Hg)      <
>     WCI    - Wind Chill Index                            <
>     VSB    - VISIBILITY IN MILES                         <
>     HX     - HEAT INDEX                                  <
>     TC     - TEMPERATURE IN CELSIUS                      <
>     VRB    - VARIABLE WIND DIRECTION                     <
>                                                          <
>>>>>>>>>>>>>>>>>>>>>>>>>>>> KEY <<<<<<<<<<<<<<<<<<<<<<<<<<<




USA.gov is the U.S. government's official web portal to all federal, state and local government web resources and services.